RH
40 18 11 11 11 12 57 70 71 78 74 78 91 84 80 56 49 39 29 11 11 7 17 14 9 5 5 5 5 7 10 6 3 24 4 5 6 8 3 2 2 2 2 2 2 2 3 5 9
20 38 18 11 12 11 28 68 56 53 58 69 85 69 89 51 48 44 41 34 23 7 10 18 14 8 5 7 13 14 12 12 10 18 10 3 4 8 2 2 1 2 2 2 2 3 6 8 9
27 21 20 12 13 15 25 52 54 53 78 95 95 66 79 66 52 45 40 46 37 18 8 10 19 16 9 6 12 11 9 10 14 19 15 8 3 6 4 2 2 2 2 2 4 6 7 8 7
69 23 29 15 13 16 19 42 53 66 98 78 92 97 76 68 60 49 46 54 45 38 18 7 8 16 18 13 8 8 12 12 8 14 16 10 3 5 7 4 2 2 2 3 4 6 7 6 5
62 70 38 19 14 15 18 49 63 94 91 96 97 99 95 71 64 56 46 51 52 49 45 25 9 8 9 16 17 13 8 7 12 14 8 6 4 4 3 4 3 2 2 2 3 5 6 6 6
51 59 74 55 20 14 17 58 76 92 88 91 96 98 82 77 67 58 50 41 42 44 52 51 37 18 11 9 9 13 16 14 9 7 6 6 5 5 4 3 3 5 2 2 2 3 4 5 5
47 48 61 45 62 22 19 44 95 97 94 92 96 95 91 63 80 62 54 45 39 33 31 42 53 46 36 24 15 12 10 10 14 16 14 10 7 6 4 4 4 3 4 3 2 2 3 3 4
48 49 54 50 53 47 28 37 73 90 97 98 95 96 95 94 92 74 59 56 51 44 38 42 44 54 57 52 47 41 32 21 12 10 9 11 17 14 8 6 5 5 4 3 4 3 2 2 3
50 64 62 76 75 48 36 39 50 68 98 95 96 82 83 87 83 77 72 65 64 60 55 46 43 39 38 38 42 47 53 52 47 44 33 19 13 9 10 15 14 8 5 5 4 4 4 3 3
55 67 65 68 68 45 45 35 42 57 78 88 90 82 82 88 92 90 95 81 69 66 58 55 50 36 39 38 36 37 30 30 41 46 47 46 44 34 16 10 8 10 15 14 7 5 4 4 4
51 50 55 64 52 53 54 57 35 56 70 80 80 60 62 66 90 94 96 95 76 69 65 63 61 53 47 48 42 38 34 34 34 37 41 44 49 56 54 47 32 16 10 9 10 15 14 10 6
38 54 59 61 60 52 66 61 72 69 79 76 81 80 67 73 74 90 97 96 91 77 71 68 66 65 60 54 52 46 43 38 34 33 34 38 40 41 44 46 63 59 42 23 15 12 10 10 12
37 41 56 66 53 72 75 81 95 94 81 88 92 91 61 47 60 67 96 97 96 90 81 75 70 68 62 58 55 57 57 50 46 41 37 36 35 38 39 37 37 38 48 64 57 37 22 15 10
33 56 65 68 49 52 81 95 95 97 100 88 56 92 61 57 85 86 92 95 94 95 93 79 71 71 66 62 60 61 58 59 51 50 49 41 38 36 38 40 41 40 41 40 41 53 61 57 49
30 42 65 69 64 41 50 92 92 93 98 96 78 81 91 70 86 96 97 97 94 96 94 88 76 74 72 67 63 60 60 58 58 51 44 46 43 45 43 40 41 43 42 34 30 36 40 48 53
24 27 47 57 58 54 51 69 93 78 90 90 96 79 91 96 91 97 96 97 95 97 94 90 77 75 72 68 67 64 59 59 58 60 55 48 45 44 44 39 30 27 34 28 19 12 9 9 16
27 24 27 37 44 46 63 62 68 74 80 80 91 93 73 96 90 95 98 96 96 98 99 92 79 74 69 67 66 64 62 62 62 60 57 42 43 42 40 32 18 11 12 11 9 7 7 6 6
34 40 38 32 34 43 48 52 55 63 76 82 78 84 95 95 98 96 95 92 94 94 98 82 78 74 67 67 66 65 58 64 60 52 48 36 36 40 38 34 29 24 24 18 17 16 16 16 19
25 30 30 34 37 40 48 64 66 77 81 76 70 66 97 98 98 97 96 92 82 83 78 83 79 72 66 63 65 63 56 43 44 43 30 16 15 22 30 29 27 26 26 24 20 17 16 14 14
27 30 30 48 60 67 68 54 56 58 61 74 73 60 84 96 99 91 98 95 69 67 78 83 72 66 64 69 57 49 40 37 30 17 15 19 37 30 26 22 19 16 14 11 11 11 10 10 7
32 33 29 28 33 33 36 28 18 26 36 48 50 42 75 89 94 100 98 99 92 91 93 93 79 90 75 74 54 46 43 22 15 14 19 20 16 9 8 7 6 5 3 2 1 1 1 1 1
31 28 29 26 34 39 56 47 50 44 31 20 16 26 68 72 71 98 98 97 98 97 96 88 96 92 79 65 51 26 15 20 28 20 8 3 2 2 2 2 2 1 1 1 1 1 1 1 1
30 49 63 76 80 69 88 92 90 72 57 44 26 43 53 52 59 67 89 93 93 96 92 82 68 50 30 25 33 40 42 26 5 2 2 2 2 1 1 1 1 1 1 1 1 1 1 2 2
52 100 100 100 100 90 65 61 60 72 56 40 45 52 54 51 55 57 50 54 53 54 52 62 52 38 40 42 47 39 8 2 1 2 2 2 2 2 1 1 1 1 1 1 2 2 2 2 2
86 100 97 100 90 41 75 90 56 70 47 50 51 50 50 48 45 50 51 39 34 40 40 41 50 46 49 50 18 2 2 2 2 2 2 2 2 2 2 2 2 2 2 2 2 2 2 2 1
58 57 36 40 32 38 98 80 55 68 75 80 56 44 59 79 55 48 49 57 52 56 61 48 52 54 15 2 2 2 2 2 3 3 3 2 2 2 2 3 3 2 2 2 3 3 2 1 2
60 64 44 77 79 84 67 56 49 41 62 62 64 55 55 30 31 30 35 41 45 59 48 42 15 2 2 2 2 2 3 3 4 4 4 3 3 2 3 3 3 3 3 3 3 3 2 2 3
82 56 64 51 72 66 53 49 32 44 31 20 15 12 8 11 18 14 9 27 41 24 6 2 2 2 3 3 3 3 4 5 5 5 4 4 4 4 3 3 3 3 4 4 4 3 2 3 4
63 76 81 81 72 68 51 43 34 29 22 14 8 6 6 6 8 9 4 3 3 2 2 2 2 3 3 4 4 5 5 5 5 5 5 5 4 4 4 4 4 4 5 5 4 4 4 4 5
36 38 51 63 43 45 33 24 11 10 8 12 10 7 6 5 4 3 3 3 2 2 3 3 4 4 5 5 5 5 5 5 6 6 6 5 5 5 5 5 5 6 6 6 5 4 4 5 7
Wind_Speed
32 25 26 24 23 19 21 14 21 20 14 19 10 10 10 12 8 7 4 4 1 7 10 10 9 6 4 3 2 2 3 2 2 2 2 1 1 1 4 5 7 10 11 12 14 16 16 14 13
29 32 28 25 22 22 24 21 23 23 21 16 11 14 5 5 5 2 3 2 1 9 9 9 9 8 5 4 3 2 1 1 3 2 3 2 0 2 5 6 7 10 11 10 10 11 12 12 11
30 29 29 25 23 27 29 31 31 29 20 12 15 17 10 4 4 3 6 4 1 6 9 8 8 8 7 6 4 2 1 1 1 2 3 3 2 2 4 6 7 9 10 11 11 9 7 7 6
29 29 31 24 24 28 38 37 32 20 20 26 24 15 14 6 4 5 7 5 4 4 7 8 8 8 8 6 5 4 2 1 1 2 3 3 4 4 4 6 7 8 9 10 12 11 10 8 6
27 28 30 24 32 30 42 42 29 26 34 20 17 9 14 8 8 8 9 9 6 4 5 5 6 9 8 6 5 4 4 3 2 1 2 3 2 3 3 6 8 7 8 10 11 12 12 11 10
26 22 26 32 34 36 44 42 31 26 37 25 24 18 16 11 11 12 13 12 9 6 6 5 3 4 6 6 4 2 2 3 4 4 3 2 2 2 3 3 6 10 10 10 11 12 13 13 12
26 23 26 31 36 41 48 48 25 21 15 21 23 30 26 27 15 20 14 12 10 10 7 6 5 3 4 2 2 1 1 1 1 3 3 3 4 4 5 5 5 6 10 12 12 13 14 14 15
29 23 32 30 35 42 47 48 33 23 20 26 24 17 30 29 22 22 16 15 14 12 8 5 5 7 6 4 2 4 5 5 4 4 5 5 6 6 6 6 7 9 9 11 14 16 17 17 17
32 28 29 37 35 43 51 47 43 33 22 19 23 21 22 27 26 21 19 17 17 14 12 8 7 10 9 7 6 8 8 10 10 9 9 7 9 8 7 9 10 10 11 12 13 16 18 20 21
35 32 30 34 32 31 37 54 48 42 33 31 25 24 28 22 26 24 21 20 20 18 16 13 10 11 10 8 8 9 10 12 13 15 15 14 14 15 13 11 11 13 13 14 15 16 17 19 21
32 29 31 35 28 30 36 52 54 44 38 39 37 36 32 29 34 27 23 22 23 22 20 17 17 16 15 14 14 13 14 15 15 14 14 16 16 17 19 20 18 16 17 16 17 17 18 19 21
31 31 37 36 33 27 33 48 39 41 38 38 43 32 33 27 25 28 30 26 24 24 23 22 21 18 18 18 18 19 18 18 19 20 19 19 20 20 20 21 23 24 23 23 21 21 21 21 21
33 36 40 41 35 34 30 52 37 37 36 26 31 27 24 24 28 31 30 26 26 27 27 26 25 24 22 21 21 22 22 22 22 23 23 24 26 27 27 27 26 27 27 28 28 28 28 28 27
35 35 41 43 32 32 30 42 30 29 26 24 26 26 27 27 28 33 32 32 27 27 26 26 25 26 25 24 25 25 26 27 28 28 29 30 31 31 32 33 33 31 30 30 30 31 33 33 32
35 35 39 42 36 34 36 38 35 36 29 21 27 29 27 36 37 38 33 41 34 30 30 27 30 29 28 30 30 31 32 33 33 33 35 35 36 36 36 35 35 36 35 33 34 33 35 35 37
36 38 40 40 37 37 41 38 33 24 21 26 24 31 35 33 36 30 32 33 32 29 30 32 33 32 32 33 35 36 38 38 38 38 40 41 43 42 40 40 38 36 37 37 38 37 38 39 39
39 40 39 38 35 37 40 39 36 31 28 26 27 24 38 40 43 42 27 30 30 34 32 34 36 34 35 37 36 38 40 41 42 42 43 44 45 43 42 39 37 37 37 37 38 38 38 39 41
37 33 34 36 34 33 38 39 39 37 35 32 29 23 33 40 40 46 40 36 35 34 34 35 37 35 37 37 37 37 40 47 44 43 44 38 43 44 40 40 40 38 39 40 41 41 42 44 45
24 25 26 27 30 36 36 39 41 43 38 34 31 27 24 46 43 37 41 41 38 36 35 34 37 39 40 41 36 37 39 33 35 37 37 37 39 40 44 44 45 46 44 44 44 44 45 47 48
24 25 28 31 34 38 38 38 41 42 41 38 36 32 30 27 51 52 44 45 45 45 40 38 40 40 42 37 35 36 35 35 36 36 37 40 39 41 42 41 43 45 46 46 47 48 48 51 51
26 28 31 28 35 39 36 37 37 40 41 40 38 35 32 31 37 52 53 48 46 45 42 41 42 42 44 41 37 37 40 39 38 36 36 37 36 36 37 37 40 42 42 43 43 43 43 44 46
28 28 30 31 30 28 25 26 27 25 29 37 40 35 29 28 24 46 53 55 48 47 51 46 51 38 33 37 40 39 37 34 36 34 31 31 31 33 35 35 36 35 35 37 36 35 35 34 36
24 31 27 24 25 25 26 29 24 30 33 36 36 31 28 25 22 21 22 23 29 35 29 26 28 31 31 31 30 33 34 31 31 29 30 29 29 29 29 30 31 30 29 30 30 29 28 28 28
24 25 22 22 26 33 27 27 29 31 26 29 29 30 26 24 25 26 25 27 26 27 28 29 31 33 33 33 30 28 28 27 28 28 27 27 27 27 26 27 27 27 27 26 25 24 26 29 31
34 34 29 29 32 31 25 34 24 22 20 19 19 23 23 24 25 27 29 26 28 28 29 27 28 29 26 27 26 24 25 25 24 25 26 26 26 24 22 22 22 24 24 24 24 25 28 30 30
36 36 32 33 25 19 24 34 20 14 13 17 23 24 21 18 20 22 19 23 24 26 25 26 24 24 24 23 23 22 23 23 24 24 25 25 23 22 21 22 25 24 22 22 22 26 28 26 26
35 34 27 34 31 27 25 31 27 18 19 21 19 17 20 21 19 16 19 22 23 21 22 23 23 22 21 20 21 23 23 23 24 23 24 24 23 24 24 24 23 23 21 22 26 29 27 27 30
38 27 33 30 32 28 23 20 10 11 14 18 19 18 17 17 15 14 17 21 20 20 21 21 21 20 20 20 21 23 23 22 23 24 24 23 22 21 22 21 20 19 21 25 28 29 29 31 32
39 41 37 34 33 30 26 22 16 14 13 12 13 14 15 18 18 18 19 20 20 19 20 20 20 19 19 20 21 21 20 20 20 21 22 22 20 19 18 18 20 22 25 26 28 30 32 34 37
37 37 37 33 28 27 23 20 13 12 10 9 11 13 16 17 18 19 18 19 17 18 19 19 18 18 18 19 17 17 17 16 17 18 18 18 17 16 17 20 22 23 24 26 28 31 34 37 40
Wind_Direction
229 235 231 226 222 207 168 213 237 257 254 257 283 305 3 91 65 73 105 95 48 105 105 102 96 101 112 108 79 19 14 351 310 350 357 40 101 141 135 128 123 120 119 123 130 136 138 138 134
226 229 235 227 217 209 203 213 243 256 271 258 279 295 305 45 92 157 178 228 223 96 104 107 102 95 100 110 114 116 7 339 305 321 327 332 349 176 161 148 142 138 134 134 137 142 148 151 151
226 230 230 225 217 213 204 215 234 244 254 229 242 272 271 221 158 205 223 229 247 105 100 108 110 107 104 106 112 118 148 229 265 291 318 332 308 261 196 179 166 160 158 156 156 160 168 172 170
229 226 231 223 211 205 206 214 233 238 210 226 224 242 265 184 188 223 213 192 208 133 113 109 113 118 114 110 106 101 111 200 243 279 305 325 326 293 259 212 194 185 183 177 176 178 185 194 203
249 233 232 219 214 199 209 216 215 225 224 172 162 194 199 203 201 228 219 200 205 168 134 131 124 115 114 129 137 137 137 147 172 230 307 308 308 306 282 263 237 217 207 204 202 203 202 208 214
241 242 233 227 217 199 207 220 217 235 236 236 170 165 183 189 200 225 224 219 214 211 192 169 156 130 123 117 116 143 168 182 184 181 199 239 234 219 245 243 243 245 243 232 223 222 230 230 234
237 236 226 226 224 211 206 215 228 233 243 257 245 181 201 212 197 223 231 225 212 215 217 208 207 192 159 157 169 159 168 254 272 267 242 229 238 228 219 221 225 236 248 250 252 248 242 247 253
232 225 213 218 219 216 211 213 216 229 227 242 245 250 209 206 192 214 213 223 220 221 216 215 223 222 218 211 246 291 304 303 304 299 306 306 287 278 269 248 236 229 230 235 242 250 259 260 260
225 214 216 218 220 223 218 220 221 221 225 241 251 261 257 179 186 200 208 219 229 232 232 233 233 228 229 231 240 261 270 282 294 296 297 299 301 303 297 293 285 270 254 243 240 238 241 248 255
219 213 216 229 233 245 243 224 229 231 239 241 244 254 225 200 195 208 212 224 229 233 237 243 242 234 222 245 262 261 267 268 269 278 287 292 296 297 293 289 291 290 284 277 268 263 259 254 253
225 219 219 228 233 235 243 230 232 239 242 245 249 248 254 254 219 213 224 225 228 237 236 236 242 244 247 258 263 265 270 274 276 281 284 285 288 294 294 292 288 282 281 281 279 277 271 269 269
232 219 220 221 228 229 234 223 238 236 239 239 245 240 245 236 232 227 238 223 231 239 239 235 238 241 248 254 261 267 269 271 274 276 278 283 284 282 286 290 286 282 281 280 277 275 273 272 273
227 227 226 223 219 225 230 218 230 240 234 233 235 236 238 222 227 227 226 226 225 232 232 236 236 242 247 255 262 266 271 272 275 278 279 282 286 288 288 284 281 280 280 277 277 278 278 275 271
224 221 226 228 219 232 229 219 234 210 218 211 224 229 219 219 221 223 221 218 211 217 226 237 242 250 254 260 265 268 272 274 275 277 280 282 285 291 287 288 288 283 282 276 275 274 270 270 273
232 227 227 232 223 225 234 231 237 235 245 228 224 226 224 222 221 223 210 219 217 217 221 236 247 250 254 258 265 270 275 276 275 278 281 286 290 295 297 290 286 283 281 284 283 278 277 274 270
229 232 229 233 235 228 235 237 232 247 238 234 240 233 233 236 221 224 218 217 209 218 222 231 243 248 253 258 262 266 272 276 277 277 281 284 285 290 289 292 287 285 281 283 283 283 283 281 278
226 234 235 237 236 232 240 239 236 240 246 250 239 242 227 233 241 236 216 224 224 221 224 231 241 247 252 257 264 270 273 275 277 278 280 287 290 292 286 286 287 286 282 281 282 282 282 282 281
232 235 241 244 244 240 240 239 241 236 238 241 245 255 241 231 236 231 225 220 226 230 231 235 239 246 252 261 268 272 280 272 275 279 280 284 285 284 283 282 287 287 287 285 284 283 284 284 283
230 235 240 246 248 244 239 241 242 248 249 247 248 249 269 235 238 231 227 226 228 233 237 243 247 252 258 263 269 265 272 278 278 276 277 284 283 285 282 281 283 285 284 283 284 284 285 285 283
225 221 223 228 236 240 238 239 238 237 246 246 246 251 257 264 234 237 239 233 231 234 238 245 251 256 258 266 268 273 276 278 277 279 277 282 281 282 284 286 286 286 285 286 286 286 285 285 286
224 231 229 226 228 234 227 232 234 240 246 249 249 249 250 256 248 235 240 241 241 240 243 246 251 258 260 267 271 273 277 283 284 283 283 284 284 284 284 285 284 284 285 286 286 286 286 285 283
224 228 235 234 223 225 224 228 225 233 245 249 250 243 252 248 261 237 239 246 244 246 244 249 251 262 265 267 268 275 280 281 282 281 280 279 280 282 283 284 283 285 288 289 292 294 295 295 294
218 212 220 225 232 231 231 235 218 226 234 245 246 246 244 246 250 256 254 257 248 251 239 247 260 265 269 268 269 276 281 278 276 276 278 282 284 285 286 286 288 291 295 294 296 298 299 302 302
201 204 216 221 236 244 243 250 229 240 262 247 243 246 245 244 248 247 245 244 246 248 253 254 257 260 263 268 274 275 271 267 271 278 284 288 290 292 293 291 292 293 294 295 297 301 303 303 304
203 206 216 223 221 246 253 249 251 252 248 241 240 238 236 233 238 245 242 241 243 247 248 250 256 260 263 265 266 261 260 267 276 282 285 290 292 291 291 294 295 296 296 295 296 299 300 303 306
212 218 222 223 238 275 240 246 251 272 249 240 232 230 225 233 233 240 238 234 241 244 243 247 251 257 260 256 253 257 267 277 282 284 286 287 286 287 291 293 295 294 292 294 296 298 302 304 306
216 224 233 233 237 244 241 249 253 242 238 239 230 218 217 222 230 229 224 231 232 231 239 248 251 249 245 249 257 268 276 280 282 284 285 287 286 287 293 296 293 290 292 294 298 304 303 304 306
221 226 226 223 231 239 237 246 239 210 206 194 198 202 213 226 230 230 237 234 232 236 237 236 234 238 245 255 265 274 279 284 285 284 285 286 286 287 290 290 289 292 296 300 301 301 300 301 304
217 222 223 226 235 244 250 241 236 219 219 211 215 222 228 232 232 230 226 222 220 224 228 232 237 244 255 265 271 278 281 280 281 281 281 282 283 284 286 291 298 301 302 302 303 306 307 307 307
221 226 232 233 236 234 244 244 233 225 223 238 241 233 229 229 227 227 224 223 221 222 227 235 245 254 259 265 270 273 276 282 283 284 282 280 280 287 293 299 301 302 304 305 306 307 306 306 306